300 
ASUS46 KSEW 281610
RWRWA 

WASHINGTON REGIONAL WEATHER ROUNDUP
NATIONAL WEATHER SERVICE SEATTLE WA
900 AM PDT FRI JUL 28 2017

NOTE:"FAIR" INDICATES FEW OR NO CLOUDS BELOW 12,000 FEET WITH NO 
SIGNIFICANT WEATHER AND/OR OBSTRUCTIONS TO VISIBILITY.

WAZ507-509-555>559-281700-
SEATTLE, TACOMA, EVERETT, AND VICINITY
  
CITY           SKY/WX    TMP DP  RH WIND       PRES   REMARKS
EVERETT        MOSUNNY   58  53  84 VRB3      30.14S                  
BOEING FIELD   PTSUNNY   63  55  75 VRB6      30.13R                  
RENTON         SUNNY     63  55  75 NW5       30.12S                  
SEATAC AIRPORT MOSUNNY   64  53  67 N7        30.13S                  
JBLM-MCCHORD   CLOUDY    62  57  86 W3        30.13S                  
PUYALLUP       CLOUDY    63  55  77 CALM      30.13S                  
BREMERTON      CLOUDY    60  53  77 CALM      30.14R                  
JBLM-FT LEWIS  CLOUDY    60  56  86 W7        30.12S                  
TACOMA NARROWS CLOUDY    57  53  86 CALM      30.13S                  
$$
 
WAZ001-503-506-510-514-515-281700-
NORTH INTERIOR
  
CITY           SKY/WX    TMP DP  RH WIND       PRES   REMARKS
BELLINGHAM     MOSUNNY   58  54  86 S7        30.11S                  
FRIDAY HARBOR  FOG       53  53 100 E3        30.13R VSB 1/2          
EASTSOUND      MOSUNNY   57  54  88 S7        30.12R                  
PORT ANGELES   SUNNY     57  53  86 NW10      30.13S                  
EDIZ HOOK      FAIR      55  51  86 W8        30.13S                  
PORT TOWNSEND  CLOUDY    59  54  82 CALM      30.13S                  
NAS WHIDBEY    PTSUNNY   59  51  75 SW8       30.17S                  
ARLINGTON      PTSUNNY   59  52  77 NW5       30.14S                  
BURLINGTON     CLOUDY    57  54  88 SE5       30.13S                  
$$
 
WAZ020-022-039-040-504-511-512-281700-
SOUTHWEST INTERIOR
  
CITY           SKY/WX    TMP DP  RH WIND       PRES   REMARKS
SHELTON        CLOUDY    56  51  84 W5        30.12S                  
OLYMPIA        PTSUNNY   57  52  83 CALM      30.14R                  
CHEHALIS       CLOUDY    59  54  82 CALM      30.14S                  
KELSO          CLOUDY    58  51  78 VRB5      30.14S                  
VANCOUVER      PTSUNNY   61  53  75 VRB7      30.12R                  
SCAPPOOSE, OR  SUNNY     61  51  70 N7        30.12R                  
PORTLAND, OR   PTSUNNY   61  52  72 N5        30.12S                  
$$
 
WAZ021-516-517-281700-
WASHINGTON COAST
  
CITY           SKY/WX    TMP DP  RH WIND       PRES   REMARKS
FORKS          CLOUDY    58  53  84 SW3       30.14R                  
HOQUIAM        CLOUDY    57  53  86 W5        30.15R                  
ASTORIA, OR    CLOUDY    59  50  72 N6        30.14S                  
$$
 
WAZ019-023-024-040-567>569-281700-
CASCADE MOUNTAINS AND COLUMBIA GORGE
  
CITY           SKY/WX    TMP DP  RH WIND       PRES   REMARKS
STAMPEDE PASS  FOG       49  48  97 SW7       30.14S VSB 1/2          
TROUTDALE, OR  CLOUDY    59  52  77 VRB3      30.12S                  
HOOD RIVER, OR SUNNY     68  52  56 S3        30.04S                  
THE DALLES, OR SUNNY     72  51  47 W15       30.00F                  
$$

WAZ026-027-041>044-520-521-281700-
EAST SLOPES
  
CITY           SKY/WX    TMP DP  RH WIND       PRES   REMARKS
OMAK           SUNNY     76  37  24 N12       29.99S                  
WENATCHEE      SUNNY     68  44  42 SW6       30.00S                  
ELLENSBURG     SUNNY     73  45  36 NW7       30.02F                  
YAKIMA         SUNNY     73  43  33 W6        30.01S                  
SUNNYSIDE ARPT   N/A     64  48  54 CALM      30.00S                  
YAKIMA TC      FAIR      72  40  30 E9        29.99S                  
$$

WAZ028-034-035-281700-
COLUMBIA BASIN
  
CITY           SKY/WX    TMP DP  RH WIND       PRES   REMARKS
EPHRATA        SUNNY     71  43  36 CALM      29.99R                  
MOSES LAKE     SUNNY     71  47  42 CALM      30.00R                  
PASCO          SUNNY     76  50  40 SW3       29.99R                  
RICHLAND ARPT  SUNNY     77  53  43 S5        29.98S                  
HERMISTON, OR  SUNNY     74  48  39 W9        29.99S                  
$$

WAZ036>038-281700-
NORTHEAST WASHINGTON
  
CITY           SKY/WX    TMP DP  RH WIND       PRES   REMARKS
SPOKANE GEIGER MOSUNNY   72  42  34 S8        30.05S                  
SPOKANE FELTS  SUNNY     77  42  28 SW9       30.04S                  
FAIRCHILD AFB  SUNNY     71  42  35 S8        30.05R                  
COEURDALENE,ID SUNNY     74  49  41 S9        30.05S                  
DEER PARK      SUNNY     73  42  32 S9        30.05S                  
$$

WAZ029>033-281700-
SOUTHEAST WASHINGTON
  
CITY           SKY/WX    TMP DP  RH WIND       PRES   REMARKS
PULLMAN        SUNNY     74  44  34 NW3       30.08S                  
LEWISTON, ID   SUNNY     75  45  34 CALM      30.01F                  
WALLA WALLA    SUNNY     75  45  34 SW7       30.01S                  
PENDLETON, OR  SUNNY     74  40  29 VRB3      30.02S                  
$$